Sheridan, WY

6:13 PM MDT on September 27, 2016 (GMT -0600)
Sheridan County

Weather History for KSHR - October, 2013

Change the Weather History Date:

Monday, October 28, 2013

  Actual Average Record
Temperature  
Mean Temperature 35 °F 41 °F  
Max Temperature 39 °F 55 °F 82 °F (1937)
Min Temperature 30 °F 27 °F -3 °F (1917)
Degree Days  
Heating Degree Days 30 24  
Month to date heating degree days 620 531  
Since 1 July heating degree days 775 834  
Cooling Degree Days 0 0  
Month to date cooling degree days 0 0  
Year to date cooling degree days 592 418  
Moisture  
Dew Point 29 °F    
Average Humidity 84    
Maximum Humidity 92    
Minimum Humidity 76    
Precipitation  
Precipitation 0.10 in 0.03 in 0.83 in (1989)
Month to date precipitation 2.46 1.32  
Year to date precipitation 16.71 12.80  
Sea Level Pressure  
Sea Level Pressure 30.13 in    
Wind  
Wind Speed 11 mph (East)    
Max Wind Speed 22 mph    
Max Gust Speed 35 mph    
Visibility 6 miles    
Events Fog , Snow    
T = Trace of Precipitation, MM = Missing Value Source: NWS Daily Summary

Daily Weather History Graph

Daily Weather History Graph

Search for Another Location

Airport or City:

Trip Planner

Search our weather history database for the weather conditions in past years. The results will help you decide how hot, cold, wet, or windy it might be!

Date:

Astronomy

Oct. 28, 2013 Rise Set
Actual Time 7:40 AM MDT 6:01 PM MDT
Civil Twilight 7:10 AM MDT 6:31 PM MDT
Nautical Twilight 6:36 AM MDT 7:06 PM MDT
Astronomical Twilight 6:02 AM MDT 7:40 PM MDT
Moon 1:22 AM MDT 2:58 PM MDT
Length of Visible Light 11h 21m
Length of Day
10h 20m
Waning Crescent, 33% of the Moon is Illuminated
Oct 28
Waning Crescent
Nov 3
New
Nov 9
First Quarter
Nov 17
Full
Nov 25
Last Quarter

Hourly Weather History & Observations

Time (MDT) Temp. Windchill Dew Point Humidity Pressure Visibility Wind Dir Wind Speed Gust Speed Precip Events Conditions
12:22 AM 37.9 °F 32.7 °F 33.1 °F 83% 30.06 in 10.0 mi NE 6.9 mph - N/A   Mostly Cloudy
12:53 AM 39.0 °F 34.8 °F 33.1 °F 79% 30.06 in 10.0 mi ENE 5.8 mph - N/A   Overcast
1:53 AM 37.9 °F 34.4 °F 30.9 °F 76% 30.09 in 10.0 mi East 4.6 mph - N/A   Overcast
2:53 AM 37.0 °F 31.6 °F 30.9 °F 79% 30.10 in 10.0 mi NE 6.9 mph - N/A   Overcast
3:44 AM 35.1 °F 26.9 °F 30.0 °F 82% 30.10 in 10.0 mi NE 11.5 mph - N/A   Overcast
3:53 AM 35.1 °F 27.9 °F 30.0 °F 82% 30.11 in 10.0 mi ENE 9.2 mph - N/A   Overcast
4:49 AM 33.8 °F 27.7 °F 30.2 °F 87% 30.12 in 3.0 mi ENE 6.9 mph - 0.00 in   Overcast
4:53 AM 33.1 °F 26.1 °F 30.9 °F 92% 30.13 in 3.0 mi ENE 8.1 mph - 0.00 in   Overcast
5:02 AM 33.1 °F 26.9 °F 30.9 °F 92% 30.12 in 2.5 mi ENE 6.9 mph - 0.00 in   Overcast
5:20 AM 33.1 °F 26.1 °F 30.9 °F 92% 30.12 in 3.0 mi ENE 8.1 mph - 0.01 in   Overcast
5:53 AM 32.0 °F 24.2 °F 30.0 °F 92% 30.17 in 3.0 mi ENE 9.2 mph - 0.01 in   Overcast
6:12 AM 32.0 °F 25.6 °F 30.0 °F 92% 30.13 in 2.5 mi ENE 6.9 mph - 0.01 in Snow Light Snow
6:33 AM 32.0 °F 27.5 °F 30.0 °F 92% 30.13 in 1.2 mi ENE 4.6 mph - 0.02 in Snow Light Snow
6:41 AM 32.0 °F 25.6 °F 30.0 °F 92% 30.13 in 1.8 mi ENE 6.9 mph - 0.02 in Snow Light Snow
6:53 AM 32.0 °F 26.4 °F 30.0 °F 92% 30.19 in 1.5 mi ENE 5.8 mph - 0.03 in Snow Light Snow
6:59 AM 32.0 °F 26.4 °F 30.0 °F 92% 30.13 in 2.0 mi ENE 5.8 mph - 0.00 in Snow Light Snow
7:28 AM 30.9 °F 22.8 °F 28.9 °F 92% 30.13 in 4.0 mi NE 9.2 mph - 0.00 in   Overcast
7:53 AM 30.9 °F 24.3 °F 28.9 °F 92% 30.20 in 9.0 mi NE 6.9 mph - 0.00 in   Overcast
8:00 AM 30.9 °F 23.5 °F 28.9 °F 92% 30.13 in 10.0 mi ENE 8.1 mph - N/A   Overcast
8:42 AM 30.0 °F 24.1 °F 28.0 °F 92% 30.14 in 2.5 mi NE 5.8 mph - 0.01 in Snow Light Snow
8:49 AM 30.2 °F 23.4 °F 28.4 °F 93% 30.14 in 4.0 mi NE 6.9 mph - 0.01 in Snow Light Snow
8:53 AM 30.0 °F 24.1 °F 28.0 °F 92% 30.20 in 4.0 mi ENE 5.8 mph - 0.01 in   Overcast
9:10 AM 30.0 °F 24.1 °F 28.0 °F 92% 30.14 in 2.0 mi ENE 5.8 mph - 0.00 in Snow Light Snow
9:25 AM 30.0 °F 23.2 °F 28.0 °F 92% 30.14 in 3.0 mi ENE 6.9 mph - 0.00 in Snow Light Snow
9:30 AM 30.0 °F 22.4 °F 28.0 °F 92% 30.14 in 1.8 mi ENE 8.1 mph - 0.00 in Snow Light Snow
9:41 AM 30.0 °F 23.2 °F 28.0 °F 92% 30.14 in 0.5 mi ENE 6.9 mph - 0.01 in Fog , Snow Snow
9:53 AM 30.0 °F 21.7 °F 28.0 °F 92% 30.22 in 0.5 mi East 9.2 mph - 0.02 in Fog , Snow Snow
10:02 AM 30.0 °F 23.2 °F 28.0 °F 92% 30.14 in 1.0 mi ENE 6.9 mph - 0.01 in Snow Light Snow
10:24 AM 30.9 °F 22.8 °F 28.0 °F 89% 30.14 in 2.0 mi East 9.2 mph - 0.01 in Snow Light Snow
10:35 AM 30.9 °F 22.2 °F 28.0 °F 89% 30.14 in 1.5 mi East 10.4 mph - 0.01 in Snow Light Snow
10:44 AM 30.0 °F 21.1 °F 28.0 °F 92% 30.14 in 2.0 mi East 10.4 mph - 0.01 in Snow Light Snow
10:53 AM 30.9 °F 23.5 °F 28.0 °F 89% 30.21 in 3.0 mi East 8.1 mph - 0.01 in Snow Light Snow
11:12 AM 30.9 °F 24.3 °F 28.0 °F 89% 30.13 in 10.0 mi East 6.9 mph - 0.00 in   Overcast
11:25 AM 30.9 °F 23.5 °F 28.0 °F 89% 30.13 in 10.0 mi East 8.1 mph - 0.00 in   Overcast
11:45 AM 32.0 °F 22.1 °F 28.0 °F 85% 30.12 in 10.0 mi East 13.8 mph 17.3 mph 0.00 in   Overcast
11:53 AM 32.0 °F 23.6 °F 28.0 °F 85% 30.19 in 10.0 mi East 10.4 mph - 0.00 in   Overcast
12:34 PM 32.0 °F 22.5 °F 28.9 °F 88% 30.10 in 10.0 mi East 12.7 mph - N/A   Overcast
12:53 PM 33.1 °F 24.9 °F 28.9 °F 85% 30.16 in 10.0 mi East 10.4 mph - N/A   Overcast
1:27 PM 34.0 °F 23.4 °F 28.9 °F 82% 30.08 in 10.0 mi SE 17.3 mph 26.5 mph N/A   Overcast
1:53 PM 34.0 °F 22.4 °F 28.9 °F 82% 30.14 in 4.0 mi ESE 20.7 mph 35.7 mph 0.00 in Snow Light Snow
1:56 PM 34.0 °F 22.7 °F 28.9 °F 82% 30.07 in 2.5 mi ESE 19.6 mph 35.7 mph 0.00 in Snow Light Snow
2:05 PM 33.1 °F 23.0 °F 28.9 °F 85% 30.07 in 1.5 mi SE 15.0 mph 23.0 mph 0.00 in Snow Light Snow
2:14 PM 33.1 °F 23.9 °F 28.9 °F 85% 30.07 in 3.0 mi ESE 12.7 mph 24.2 mph 0.00 in Snow Light Snow
2:23 PM 33.1 °F 23.0 °F 28.9 °F 85% 30.07 in 1.8 mi ESE 15.0 mph 24.2 mph 0.00 in Snow Light Snow
2:34 PM 33.1 °F 23.4 °F 30.0 °F 89% 30.07 in 1.0 mi ESE 13.8 mph - 0.01 in Snow Light Snow
2:53 PM 33.1 °F 24.9 °F 30.0 °F 89% 30.14 in 1.0 mi ESE 10.4 mph - 0.02 in Snow Light Snow
3:24 PM 33.1 °F 23.9 °F 30.9 °F 92% 30.07 in 3.0 mi ESE 12.7 mph - 0.00 in Snow Light Snow
3:43 PM 33.1 °F 23.9 °F 28.9 °F 85% 30.07 in 6.0 mi ESE 12.7 mph - 0.00 in Snow Light Snow
3:53 PM 32.0 °F 22.5 °F 28.9 °F 88% 30.15 in 4.0 mi ESE 12.7 mph - 0.00 in Snow Light Snow
4:36 PM 32.0 °F 23.6 °F 27.0 °F 82% 30.07 in 10.0 mi SE 10.4 mph - 0.00 in   Overcast
4:53 PM 32.0 °F 22.1 °F 27.0 °F 82% 30.16 in 10.0 mi SE 13.8 mph 20.7 mph 0.00 in   Overcast
5:26 PM 32.0 °F 23.0 °F 28.0 °F 85% 30.07 in 10.0 mi ESE 11.5 mph 19.6 mph N/A   Overcast
5:53 PM 32.0 °F 24.8 °F 28.0 °F 85% 30.17 in 10.0 mi ESE 8.1 mph - N/A   Overcast
6:37 PM 30.9 °F 21.2 °F 27.0 °F 85% 30.07 in 10.0 mi SE 12.7 mph - N/A   Overcast
6:53 PM 30.9 °F 22.8 °F 27.0 °F 85% 30.16 in 10.0 mi SSE 9.2 mph - N/A   Overcast
7:29 PM 30.9 °F 21.2 °F 27.0 °F 85% 30.08 in 10.0 mi SE 12.7 mph - N/A   Overcast
7:53 PM 30.9 °F 22.8 °F 27.0 °F 85% 30.18 in 10.0 mi ESE 9.2 mph - N/A   Overcast
8:06 PM 30.9 °F 22.8 °F 27.0 °F 85% 30.08 in 10.0 mi ESE 9.2 mph - N/A   Overcast
8:38 PM 30.9 °F 21.2 °F 27.0 °F 85% 30.08 in 10.0 mi SE 12.7 mph - N/A   Overcast
8:53 PM 30.9 °F 21.2 °F 27.0 °F 85% 30.18 in 10.0 mi SE 12.7 mph 21.9 mph N/A   Overcast
9:53 PM 30.9 °F 20.7 °F 26.1 °F 82% 30.17 in 10.0 mi SE 13.8 mph 20.7 mph N/A   Overcast
10:53 PM 30.9 °F 20.2 °F 25.0 °F 79% 30.17 in 10.0 mi SE 15.0 mph 23.0 mph N/A   Overcast
11:53 PM 30.0 °F 18.7 °F 25.0 °F 82% 30.16 in 10.0 mi SE 16.1 mph - N/A   Overcast